Regional Weather Roundup
Issued by NWS

Home | Current Version | Previous Version | Graphics & Text | Print | Product List | Glossary On
Versions: 1 2 3 4 5 6 7 8 9 10 11 12 13 14 15 16 17 18 19 20 21 22 23 24 25 26 27 28 29 30 31 32 33 34 35 36 37 38 39 40 41 42 43 44 45 46 47 48 49 50
000
ASUS43 KBIS 041010
RWRND

NORTH DAKOTA REGIONAL WEATHER ROUNDUP
NATIONAL WEATHER SERVICE BISMARCK ND
500 AM CDT FRI SEP 04 2015

NOTE: "FAIR" INDICATES FEW OR NO CLOUDS BELOW 12,000 FEET WITH NO
SIGNIFICANT WEATHER AND/OR OBSTRUCTIONS TO VISIBILITY.


NDZ001>003-009>011-017-041100-
NORTHWEST NORTH DAKOTA

CITY           SKY/WX    TMP DP  RH WIND       PRES   REMARKS
WILLISTON      CLOUDY    63  45  51 N18G25    29.82S
MINOT          CLOUDY    68  63  84 NW13      29.75S
MINOT AFB      CLOUDY    70  67  90 N13       29.74S
$$

NDZ018>021-031>035-040>046-041100-
SOUTHWEST NORTH DAKOTA

CITY           SKY/WX    TMP DP  RH WIND       PRES   REMARKS
BISMARCK         N/A     73  71  93 SE8       29.70F
DICKINSON      CLOUDY    66  57  72 N21G28    29.75F
GARRISON         N/A     67  62  84 N9        29.74S
HETTINGER ARPT CLOUDY    68  56  65 NW7       29.74R
$$

NDZ004>008-012>016-024-026-027-054-041100-
NORTHEAST NORTH DAKOTA

CITY           SKY/WX    TMP DP  RH WIND       PRES   REMARKS
GRAND FORKS    MOCLDY    73  72  94 SE13      29.77S
GRND FRKS AFB  CLOUDY    73  72  94 S9        29.78S
DEVILS LAKE    CLOUDY    73  66  78 S3        29.76R
$$

NDZ022-023-025-028>030-036>039-047>053-041100-
SOUTHEAST NORTH DAKOTA

CITY           SKY/WX    TMP DP  RH WIND       PRES   REMARKS
FARGO          CLEAR     76  71  85 SE12      29.77S
JAMESTOWN      PTCLDY    73  71  93 SE10      29.74F FOG
$$



USA.gov is the U.S. government's official web portal to all federal, state and local government web resources and services.